Wind_Speed
23 40 37 39 39 32 35 34 33 35 34 37 37 39 33 30 10 10 19 17 28 30 25 20 19 20 14 20 16 12 11 10 8 13 11 5 3 4 3 1 3 2 3 2
23 38 27 34 36 34 36 35 25 30 37 39 36 37 36 34 14 13 16 13 29 30 29 19 22 22 19 18 13 9 11 8 13 10 9 7 3 2 4 6 2 6 4 4
28 39 33 41 37 35 37 34 21 30 40 39 36 36 30 32 18 14 16 16 26 29 27 19 25 22 19 17 12 8 14 17 11 14 12 7 5 1 5 7 3 5 4 7
29 43 27 41 34 38 40 41 25 31 44 44 40 32 24 30 22 17 14 18 21 28 27 26 25 22 20 16 15 13 13 10 8 12 10 7 5 2 6 7 3 2 3 7
31 40 31 43 34 43 46 38 22 27 7 38 32 32 27 29 22 16 16 15 20 21 30 31 26 24 22 21 18 14 13 16 13 16 7 0 2 3 7 7 6 6 9 9
27 38 43 43 35 49 50 35 19 30 19 41 37 36 30 28 23 18 18 18 21 22 21 18 18 15 16 13 20 18 18 22 15 12 13 4 4 2 5 4 3 2 5 4
31 34 46 43 39 50 49 34 14 28 34 33 41 33 29 27 24 19 18 20 23 21 20 19 15 11 13 16 16 17 19 18 12 12 11 1 2 4 2 3 3 3 1 4
34 36 38 43 42 49 48 30 21 30 29 24 34 32 29 28 25 22 16 20 22 22 22 20 20 16 14 12 13 14 15 19 10 8 6 6 6 8 3 4 4 4 3 4
33 36 37 44 42 50 46 27 34 22 25 27 33 30 32 34 30 24 22 22 22 25 25 22 19 6 12 9 10 10 15 17 12 13 6 7 4 8 6 6 6 5 4 5
40 32 44 47 51 52 40 33 24 25 29 33 36 34 34 34 32 27 30 32 33 32 26 23 21 11 14 10 11 13 13 14 12 13 3 4 5 5 8 4 2 2 3 1
35 24 42 49 52 58 34 32 29 29 25 38 36 33 30 35 32 31 36 36 35 28 26 19 15 12 11 11 12 8 12 13 12 12 4 4 11 13 10 3 9 3 4 2
36 36 42 50 55 53 39 29 29 30 27 38 30 31 29 31 31 31 35 34 36 25 22 14 17 13 14 14 14 11 10 12 17 11 10 3 16 11 12 11 6 3 4 3
23 28 43 49 60 56 43 31 27 29 24 35 29 33 32 30 27 31 34 33 35 27 24 20 14 14 15 16 15 16 10 16 11 13 9 10 16 15 13 7 2 2 3 3
26 36 48 51 60 58 34 29 32 32 36 31 33 32 32 31 27 29 31 29 25 24 19 17 15 14 17 18 15 17 13 17 11 13 15 16 15 11 6 4 3 1 4 6
31 43 48 53 59 46 35 34 37 35 26 36 34 31 29 28 28 27 26 25 23 22 20 18 15 18 17 19 16 18 16 14 13 10 8 10 10 11 9 5 2 3 6 6
33 46 47 49 56 36 32 38 37 29 34 36 32 28 26 25 23 22 24 23 21 20 18 17 17 17 17 18 18 18 15 12 8 6 10 14 9 14 11 5 2 6 8 9
40 45 47 49 45 38 41 34 33 29 39 35 33 30 27 25 23 21 19 19 18 17 18 19 19 19 16 16 20 18 17 13 10 6 13 15 11 9 10 7 4 9 11 10
47 42 44 41 45 38 29 35 33 33 35 34 25 32 30 27 25 23 20 19 17 17 17 18 18 18 18 13 19 20 19 16 11 10 10 6 11 12 10 8 9 12 11 9
51 38 37 39 45 40 37 34 34 32 25 25 26 37 35 28 26 23 19 16 15 15 15 16 16 18 13 13 15 19 20 18 13 14 15 14 9 10 10 9 12 13 10 10
43 41 38 34 44 42 32 34 29 27 18 16 29 41 31 33 29 25 20 16 13 10 13 12 14 18 20 13 15 16 18 17 16 19 20 17 13 11 10 11 14 13 10 9
48 39 42 40 35 35 28 28 18 17 12 19 32 37 33 31 28 26 14 11 8 6 8 11 7 16 19 15 19 20 17 13 15 10 8 7 6 10 9 11 14 12 10 10
49 47 37 33 36 17 15 22 15 13 13 23 33 30 29 30 24 15 8 8 8 5 9 9 6 11 16 17 18 20 18 17 21 18 17 18 15 13 12 12 13 12 10 10
40 36 36 24 18 12 13 11 28 17 24 31 35 32 30 27 19 12 8 6 6 5 10 7 9 13 14 17 19 21 19 18 22 21 21 19 15 14 13 13 14 11 9 9
41 27 24 12 7 11 23 19 38 29 31 32 33 33 30 29 19 10 7 7 7 8 7 7 9 15 17 20 20 19 21 17 20 20 19 19 17 14 15 17 13 9 8 8
26 10 15 17 17 19 21 29 33 29 31 33 35 32 28 24 11 8 8 10 7 9 10 8 12 17 20 21 22 21 19 18 20 20 19 20 18 15 14 17 14 10 8 8
18 8 16 22 18 20 28 32 32 32 35 34 31 24 18 15 9 10 8 7 7 7 12 14 13 16 19 22 21 19 17 19 19 22 21 19 17 15 16 16 14 11 9 8
16 18 16 23 24 29 30 30 34 36 37 37 30 11 14 11 9 10 10 6 5 9 13 17 17 16 18 19 19 19 18 22 23 24 23 21 19 19 19 18 13 10 8 7
Wind_Direction
230 207 204 188 198 209 194 189 190 185 187 187 194 201 199 196 193 176 185 189 178 169 177 184 176 170 162 183 189 184 162 179 122 133 121 137 173 95 22 114 187 157 179 209
235 205 175 193 199 201 189 188 181 186 190 195 195 202 204 203 191 172 180 167 183 177 183 180 181 171 169 180 191 204 211 174 127 135 140 156 164 86 351 341 215 177 169 185
232 189 174 190 197 195 187 178 179 191 195 195 196 202 206 202 199 176 163 165 184 189 194 192 184 183 176 184 186 208 200 193 201 187 185 167 136 327 338 343 270 195 199 180
227 220 185 173 189 191 182 176 186 199 199 195 197 200 205 200 202 182 169 167 184 196 187 193 180 185 171 168 171 178 184 162 171 131 145 151 137 334 352 17 40 313 159 125
222 219 169 174 180 188 184 179 187 203 181 197 199 195 197 198 187 186 180 166 176 190 196 198 186 197 186 171 173 188 172 138 159 127 143 143 88 358 356 29 47 113 128 115
214 216 163 181 180 189 181 174 177 194 187 190 200 197 191 192 186 191 186 169 159 170 177 165 160 172 193 205 190 182 168 159 155 144 152 151 79 337 324 351 31 102 118 55
217 207 172 179 185 188 175 173 170 190 193 194 196 192 196 192 183 189 185 177 159 159 149 150 138 144 165 176 180 191 189 188 170 160 158 62 249 178 244 306 107 110 48 86
208 185 177 184 186 183 171 177 168 190 194 198 190 189 191 185 180 179 184 176 183 173 163 154 134 137 144 155 171 194 199 194 161 169 160 169 214 212 257 299 205 149 39 75
198 204 182 187 185 180 173 182 176 186 184 185 183 189 186 185 182 172 171 172 178 175 173 171 153 150 159 168 161 174 188 194 199 169 146 198 267 225 232 287 204 204 165 32
191 189 174 188 182 173 171 175 178 176 175 183 182 187 187 187 184 176 171 173 168 171 178 168 158 149 175 166 186 196 195 199 204 190 167 206 220 205 211 234 319 285 162 235
207 188 179 189 177 171 168 152 171 175 177 183 185 187 186 184 186 180 178 174 177 174 172 169 161 164 165 162 174 186 207 195 188 180 142 211 183 191 203 290 319 185 170 202
194 170 186 186 175 172 158 151 165 174 178 183 182 182 176 179 184 186 184 183 183 182 188 178 176 157 174 172 172 189 205 200 193 188 201 213 188 197 221 275 303 164 185 250
206 184 185 181 173 182 155 150 155 176 172 172 172 175 179 178 181 189 190 186 190 190 192 198 198 188 193 182 184 190 196 196 195 179 186 167 181 204 237 253 153 144 187 181
188 178 182 178 178 187 145 142 163 164 160 158 167 174 182 182 178 188 195 199 198 204 212 218 218 199 198 196 192 192 193 183 188 189 175 171 183 198 203 181 144 167 165 154
180 175 180 178 184 175 134 151 162 156 152 160 162 174 180 182 189 194 196 201 205 208 218 224 204 198 193 201 188 195 199 199 200 219 215 183 194 197 175 160 138 150 143 156
177 177 179 182 185 176 154 156 159 154 153 153 152 165 167 180 188 191 195 199 201 208 207 195 190 199 199 192 193 202 200 200 197 214 187 181 181 172 164 156 152 153 150 145
175 177 179 182 178 158 152 160 157 154 161 160 156 151 159 168 171 168 166 172 177 186 192 191 195 198 204 212 207 199 199 203 202 198 190 179 167 173 162 164 163 163 160 158
173 175 178 178 180 169 142 153 162 162 166 164 158 156 159 166 170 168 168 170 173 178 191 201 205 209 214 223 214 211 208 205 194 160 149 154 174 163 172 166 166 167 161 154
166 170 172 179 183 175 149 157 161 168 170 176 168 163 158 169 174 171 165 171 177 182 193 199 200 207 212 212 210 213 213 219 212 180 173 172 170 165 167 169 171 166 161 157
156 152 166 173 186 171 158 161 164 170 170 167 174 173 167 170 172 169 161 167 170 179 195 201 207 216 221 212 203 200 199 202 206 202 190 186 181 173 170 170 169 164 161 158
165 172 169 170 183 185 161 155 156 167 157 158 171 174 173 173 180 172 160 162 169 188 195 200 213 226 220 204 192 185 188 184 151 146 148 140 154 186 183 179 171 166 161 160
168 174 169 166 172 187 181 174 158 155 149 155 166 168 177 172 173 164 153 154 173 185 191 194 233 215 207 200 188 180 181 174 165 172 181 171 163 170 179 174 170 167 164 163
158 160 160 162 159 170 165 151 179 161 167 166 167 167 172 172 166 162 158 166 191 187 185 217 217 193 193 191 177 171 170 173 177 182 178 181 174 174 175 174 169 169 166 165
158 155 163 167 157 155 176 170 182 177 170 168 173 174 170 174 165 155 166 185 188 194 217 219 197 186 180 179 176 179 178 175 182 183 181 178 185 189 178 166 171 168 163 166
159 128 163 163 170 165 169 176 172 170 168 172 169 175 170 166 163 165 167 175 202 211 214 201 193 179 177 174 174 175 181 181 181 180 182 182 192 188 183 178 172 169 165 165
166 150 139 155 153 160 164 170 168 168 168 169 167 159 161 166 165 177 179 189 207 205 183 182 170 168 169 171 167 167 172 178 178 178 182 190 192 183 177 179 177 173 170 168
166 170 162 159 160 159 162 160 165 166 169 168 166 155 173 167 186 181 188 206 194 176 184 185 172 165 166 160 162 172 178 179 178 183 187 190 187 185 181 181 183 184 182 180
Height
2972 2980 2989 2994 3006 3013 3022 3029 3036 3043 3049 3054 3056 3061 3067 3073 3077 3079 3083 3085 3088 3092 3096 3100 3104 3107 3110 3114 3119 3121 3123 3125 3128 3130 3131 3132 3133 3133 3134 3133 3136 3135 3137 3140
2967 2976 2982 2993 3001 3009 3018 3025 3033 3038 3042 3045 3051 3059 3063 3070 3075 3077 3081 3082 3087 3091 3094 3099 3104 3107 3111 3114 3117 3120 3122 3124 3127 3131 3133 3132 3132 3133 3134 3133 3133 3133 3136 3139
2961 2969 2979 2989 2999 3005 3014 3023 3031 3033 3035 3041 3049 3055 3061 3067 3073 3076 3078 3080 3084 3089 3093 3097 3101 3106 3110 3113 3115 3118 3120 3121 3122 3126 3128 3130 3131 3133 3133 3132 3132 3132 3134 3134
2956 2963 2971 2983 2995 3002 3010 3016 3021 3025 3027 3036 3044 3053 3059 3064 3070 3074 3076 3078 3082 3085 3089 3095 3098 3103 3108 3112 3114 3117 3120 3122 3123 3125 3127 3129 3130 3132 3132 3131 3131 3133 3133 3135
2953 2958 2962 2976 2987 2997 3003 3011 3018 3022 3027 3039 3044 3049 3053 3061 3069 3072 3075 3077 3080 3084 3087 3092 3095 3101 3106 3110 3114 3115 3118 3122 3123 3126 3129 3129 3130 3131 3131 3132 3132 3132 3134 3136
2946 2951 2959 2972 2981 2990 2997 3011 3015 3020 3025 3031 3039 3043 3052 3059 3067 3071 3074 3078 3081 3085 3090 3093 3098 3103 3106 3109 3111 3114 3117 3120 3123 3127 3129 3130 3132 3132 3132 3132 3132 3134 3135 3138
2942 2948 2959 2968 2974 2986 2999 3009 3011 3018 3024 3027 3031 3043 3050 3057 3063 3068 3073 3077 3081 3087 3089 3092 3097 3101 3105 3108 3111 3114 3115 3118 3122 3125 3128 3132 3131 3131 3133 3133 3133 3135 3136 3137
2938 2945 2956 2964 2971 2984 2997 3006 3009 3016 3020 3025 3035 3042 3049 3055 3061 3067 3071 3077 3082 3085 3089 3091 3097 3102 3105 3108 3111 3113 3115 3118 3121 3124 3127 3130 3129 3130 3132 3133 3134 3134 3136 3137
2937 2945 2953 2962 2970 2982 2995 3001 3007 3015 3021 3026 3035 3040 3046 3051 3057 3064 3070 3075 3080 3085 3087 3090 3093 3100 3105 3108 3111 3113 3115 3118 3121 3123 3125 3128 3127 3128 3131 3133 3133 3134 3136 3136
2935 2944 2951 2959 2968 2981 2991 2999 3007 3014 3018 3024 3031 3037 3043 3049 3056 3062 3068 3073 3078 3083 3085 3089 3094 3099 3103 3106 3109 3112 3114 3117 3119 3121 3123 3125 3126 3128 3131 3133 3137 3133 3134 3136
2932 2939 2950 2959 2969 2981 2985 2998 3006 3011 3016 3023 3029 3036 3042 3048 3054 3059 3066 3073 3077 3082 3085 3089 3092 3097 3101 3104 3108 3110 3113 3115 3117 3119 3122 3126 3126 3128 3131 3133 3131 3132 3133 3135
2933 2939 2948 2958 2970 2979 2986 2997 3005 3012 3017 3022 3029 3036 3042 3048 3054 3061 3065 3071 3075 3079 3083 3087 3090 3094 3099 3102 3106 3109 3113 3114 3116 3119 3122 3122 3124 3127 3130 3130 3130 3131 3133 3134
2930 2937 2948 2960 2969 2975 2989 2996 3004 3011 3017 3024 3030 3035 3042 3048 3054 3060 3065 3068 3074 3078 3082 3086 3089 3093 3097 3100 3102 3106 3109 3111 3114 3118 3121 3122 3125 3127 3128 3128 3130 3131 3132 3133
2930 2938 2949 2960 2966 2969 2982 2994 3003 3011 3015 3021 3029 3035 3041 3047 3053 3059 3065 3071 3075 3079 3083 3086 3088 3092 3096 3097 3100 3104 3107 3110 3113 3116 3119 3122 3124 3126 3127 3128 3129 3130 3131 3132
2931 2939 2949 2958 2963 2969 2981 2993 3003 3010 3018 3023 3028 3034 3041 3047 3053 3058 3063 3068 3073 3077 3080 3083 3087 3091 3095 3096 3100 3102 3105 3108 3112 3115 3117 3120 3123 3124 3126 3127 3129 3130 3131 3132
2932 2942 2951 2959 2964 2969 2983 2994 3003 3009 3015 3022 3027 3034 3040 3046 3052 3057 3061 3066 3070 3074 3077 3082 3085 3089 3093 3095 3097 3100 3104 3108 3111 3113 3116 3119 3121 3122 3125 3127 3128 3129 3130 3131
2934 2944 2953 2959 2964 2974 2986 2994 3002 3009 3014 3020 3028 3034 3040 3045 3051 3056 3061 3065 3068 3073 3077 3080 3085 3089 3091 3092 3094 3099 3102 3106 3109 3112 3114 3116 3120 3121 3124 3126 3127 3128 3130 3131
2937 2947 2956 2963 2969 2976 2983 2995 3003 3009 3014 3021 3026 3032 3040 3045 3049 3054 3060 3064 3069 3072 3075 3080 3084 3087 3088 3090 3092 3096 3099 3103 3107 3110 3114 3116 3118 3120 3123 3125 3127 3128 3130 3131
2940 2951 2960 2965 2972 2976 2984 2995 3003 3009 3016 3018 3022 3027 3036 3044 3049 3054 3060 3064 3068 3072 3074 3078 3082 3083 3084 3086 3089 3092 3097 3101 3104 3109 3112 3115 3118 3120 3122 3123 3125 3127 3129 3131
2943 2955 2961 2967 2972 2978 2990 2998 3004 3009 3013 3017 3021 3028 3032 3041 3046 3052 3060 3064 3068 3071 3075 3077 3078 3079 3079 3084 3087 3092 3095 3099 3102 3105 3108 3112 3115 3118 3120 3122 3124 3126 3129 3131
2943 2946 2958 2967 2971 2978 2981 2992 3000 3006 3012 3016 3022 3030 3033 3042 3048 3052 3059 3063 3067 3070 3073 3075 3075 3074 3076 3082 3084 3089 3094 3098 3102 3107 3110 3113 3114 3116 3119 3121 3123 3126 3128 3130
2947 2953 2963 2970 2978 2979 2981 2990 2997 3003 3010 3015 3023 3030 3037 3042 3049 3055 3060 3062 3066 3068 3070 3073 3070 3071 3073 3078 3082 3087 3091 3095 3099 3105 3108 3111 3113 3116 3118 3121 3124 3126 3128 3130
2952 2959 2966 2970 2976 2980 2984 2987 2996 3000 3005 3012 3019 3027 3036 3043 3048 3053 3059 3063 3066 3067 3068 3067 3066 3068 3071 3075 3080 3085 3090 3093 3098 3102 3106 3110 3113 3115 3118 3121 3123 3126 3128 3130
2953 2959 2967 2971 2976 2978 2982 2986 2993 3000 3008 3014 3021 3027 3034 3041 3049 3054 3059 3062 3064 3064 3063 3062 3063 3066 3069 3074 3079 3084 3088 3092 3097 3101 3105 3109 3112 3114 3117 3120 3124 3126 3128 3129
2954 2960 2967 2970 2973 2977 2982 2988 2997 3004 3011 3017 3022 3030 3038 3044 3050 3053 3056 3058 3059 3058 3058 3060 3061 3064 3068 3072 3077 3082 3087 3091 3095 3100 3104 3108 3111 3114 3117 3120 3123 3125 3127 3129
2958 2962 2966 2971 2976 2980 2984 2990 2998 3006 3011 3019 3026 3032 3039 3043 3046 3049 3051 3053 3053 3054 3056 3058 3060 3064 3068 3072 3076 3081 3085 3090 3094 3099 3103 3106 3110 3114 3117 3120 3123 3125 3126 3128
2961 2965 2970 2973 2977 2983 2989 2996 3001 3007 3014 3020 3026 3030 3035 3039 3043 3046 3048 3050 3051 3052 3054 3057 3062 3066 3068 3071 3076 3080 3084 3088 3092 3097 3101 3105 3109 3112 3116 3119 3122 3124 3125 3127